リニア彗星

217P/LINEAR (2009)

English version
Home page
Updated on March 27, 2011

---------------------------------------------------------------------

・ プロフィール

符号 217P/2009 F3
検出日 2009年3月17日
検出光度 18.2等
検出者 E. Guido, G. Sostero, and P. Camilleri (RAS Observatory)

・ 写真集

・ 軌道要素

Epoch 2009 Sept. 6.0 TT = JDT 2455080.5
T 2009 Sept. 8.96788 TT                                 MPC
q   1.2239801            (2000.0)            P               Q
n   0.12586849     Peri.  246.74442     +0.95800287     -0.22223952
a   3.9432837      Node   125.62197     +0.26560771     +0.92589799
e   0.6896038      Incl.   12.88144     -0.10808811     +0.30548732
P   7.83

・ 星図

・ 光度変化

        H = 14.0  G = 0.15                       [    ,-215]  (              〜2009年 2月 5日)
        m1 = 9.5 + 5 logΔ + 16.0 log r(t - 30)  [-215, 290]  (2009年 2月 5日〜2010年 6月25日)
        H = 14.0  G = 0.15                       [ 290,    ]  (2010年 6月25日〜              )

---------------------------------------------------------------------

軌道要素はM.P.E.C. 2009-F51に掲載されたものです。
星図は StellaNavigator Ver.2.0 for Windows (アストロアーツ編著 / アスキー出版局刊) で作成したものです。
光度グラフはComet for Windowsで作成したものです。

---------------------------------------------------------------------

Copyright(C) Seiichi Yoshida (comet@aerith.net). All rights reserved.